Powrót do katalogu

SL-14 R/B

AktywnyPO
NORAD 13590·ROCKET BODY·🇷🇺 Russia

Wystrzelony Sep 24, 1982 z Plesetsk Cosmodrome

Loading…

Następne Przeloty (najbliższe 24 godziny)

TLE

ŚwieżeSource: Space-Track

Epoka: Sep 14, 2026, 09:53 UTC

1 13590U 82096B   26257.41204477 -.00000002  00000-0 -89761-4 0  9993
2 13590  82.6080  49.7435 0007171 110.8233 277.2198 12.42686567994623

Śledź SL-14 R/B w czasie rzeczywistym z AllMySat

Download on the App Store